Orbital Elements at Epoch 2459200.5 (2020-Dec-17.0) TDB
Reference: JPL 20 (heliocentric ecliptic J2000)
Element | Value | Uncertainty (1-sigma) | Units |
e | .2092934047289799 | 3.667e-08 | |
a | 2.257730983661403 | 8.1525e-09 | au |
q | 1.785202779128799 | 8.4856e-08 | au |
i | 1.585005686872839 | 4.3902e-06 | deg |
node | 19.25531587948244 | 0.00014087 | deg |
peri | 332.2902500214885 | 0.00014125 | deg |
M | 71.2246711814541 | 1.2013e-05 | deg |
tp | 2458955.348435845421 (2020-Apr-15.84843585) | 4.0542e-05 | TDB |
period | 1239.10102541307 3.39 | 6.7114e-06 1.837e-08 | d yr |
n | .2905332112690243 | 1.5736e-09 | deg/d |
Q | 2.730259188194007 | 9.8587e-09 | au |
|
| | Orbit Determination Parameters
Additional Information
|